Location: Hamilton
(37.7830°S, 175.2830°E)
Time: 16:43:06
(UTC+13:00)

USA 238 - Pass Details

Date: 24 January 2019
Orbit: 1046 x 1166 km, 63.4° (Epoch: 17 February)

Event Time Altitude Azimuth Distance (km) Brightness Sun altitude
Rises 22:12:57 0° 352° (N) 4,026 6.4 -16.4°
Reaches altitude 10° 22:15:49 10° 358° (N) 3,069 5.7 -16.9°
Maximum altitude 22:22:39 43° 66° (ENE) 1,583 4.1 -17.9°
Drops below altitude 10° 22:29:27 10° 134° (SE) 3,052 6.1 -18.8°
Sets 22:32:16 0° 140° (SE) 4,002 6.8 -19.2°
